Time,TemperatureF,DewpointF,PressureIn,WindDirection,WindDirectionDegrees,WindSpeedMPH,WindSpeedGustMPH,Humidity,HourlyPrecipIn,Conditions,Clouds,dailyrainin,SolarRadiationWatts/m^2,SoftwareType,DateUTC
2013-06-03 00:00:00,61.6,57.0,30.06,NNW,342,0.0,-999.0,85,-99.99,,,0.00,0,weatherlink.com 1.10,2013-06-03 05:00:00,
2013-06-03 00:15:00,61.3,57.0,30.06,NNW,327,5.0,-999.0,85,-99.99,,,0.00,0,weatherlink.com 1.10,2013-06-03 05:15:00,
2013-06-03 00:30:00,60.9,57.0,30.05,NNW,331,1.0,-999.0,86,-99.99,,,0.00,0,weatherlink.com 1.10,2013-06-03 05:30:00,
2013-06-03 00:45:00,60.6,56.0,30.06,NNW,332,5.0,-999.0,86,-99.99,,,0.00,0,weatherlink.com 1.10,2013-06-03 05:45:00,
2013-06-03 01:00:00,60.4,57.0,30.06,NNW,333,6.0,-999.0,87,-99.99,,,0.00,0,weatherlink.com 1.10,2013-06-03 06:00:00,
2013-06-03 01:15:00,60.0,57.0,30.06,NNW,333,6.0,-999.0,88,-99.99,,,0.00,0,weatherlink.com 1.10,2013-06-03 06:15:00,
2013-06-03 01:30:00,59.9,56.0,30.06,NNW,340,0.0,-999.0,88,-99.99,,,0.00,0,weatherlink.com 1.10,2013-06-03 06:30:00,
2013-06-03 01:45:00,59.5,56.0,30.06,NNW,340,0.0,-999.0,89,-99.99,,,0.00,0,weatherlink.com 1.10,2013-06-03 06:45:00,
2013-06-03 02:00:00,59.3,56.0,30.06,NNW,340,0.0,-999.0,89,-99.99,,,0.00,0,weatherlink.com 1.10,2013-06-03 07:00:00,
2013-06-03 02:15:00,59.0,56.0,30.06,NNW,340,0.0,-999.0,90,-99.99,,,0.00,0,weatherlink.com 1.10,2013-06-03 07:15:00,
2013-06-03 02:30:00,59.0,56.0,30.06,NNW,340,2.0,-999.0,90,-99.99,,,0.00,0,weatherlink.com 1.10,2013-06-03 07:30:00,
2013-06-03 02:45:00,59.2,56.0,30.05,NNW,340,0.0,-999.0,90,-99.99,,,0.00,0,weatherlink.com 1.10,2013-06-03 07:45:00,
2013-06-03 03:00:00,59.1,56.0,30.05,NNW,340,1.0,-999.0,90,-99.99,,,0.00,0,weatherlink.com 1.10,2013-06-03 08:00:00,
2013-06-03 03:15:00,59.2,56.0,30.07,NNW,340,0.0,-999.0,90,-99.99,,,0.00,0,weatherlink.com 1.10,2013-06-03 08:15:00,
2013-06-03 03:30:00,59.2,57.0,30.07,NNW,340,0.0,-999.0,91,-99.99,,,0.00,0,weatherlink.com 1.10,2013-06-03 08:30:00,
2013-06-03 03:45:00,59.1,57.0,30.07,NNW,340,4.0,-999.0,91,-99.99,,,0.00,0,weatherlink.com 1.10,2013-06-03 08:45:00,
2013-06-03 04:00:00,59.0,56.0,30.07,NNW,340,5.0,-999.0,91,-99.99,,,0.00,0,weatherlink.com 1.10,2013-06-03 09:00:00,
2013-06-03 04:15:00,58.9,56.0,30.08,NNW,340,4.0,-999.0,91,-99.99,,,0.00,0,weatherlink.com 1.10,2013-06-03 09:15:00,
2013-06-03 04:30:00,58.9,56.0,30.08,NNW,340,0.0,-999.0,91,-99.99,,,0.00,0,weatherlink.com 1.10,2013-06-03 09:30:00,
2013-06-03 04:45:00,59.0,56.0,30.09,NNW,340,6.0,-999.0,91,-99.99,,,0.00,0,weatherlink.com 1.10,2013-06-03 09:45:00,
2013-06-03 05:00:00,59.0,56.0,30.09,NNW,340,2.0,-999.0,91,-99.99,,,0.00,0,weatherlink.com 1.10,2013-06-03 10:00:00,
2013-06-03 05:15:00,59.1,57.0,30.10,NNW,340,0.0,-999.0,91,-99.99,,,0.00,0,weatherlink.com 1.10,2013-06-03 10:15:00,
2013-06-03 05:30:00,58.9,57.0,30.11,NNW,338,4.0,-999.0,92,-99.99,,,0.00,0,weatherlink.com 1.10,2013-06-03 10:30:00,
2013-06-03 05:45:00,58.9,57.0,30.11,NNW,338,0.0,-999.0,92,-99.99,,,0.00,0,weatherlink.com 1.10,2013-06-03 10:45:00,
2013-06-03 06:01:00,58.8,57.0,30.11,NNW,338,2.0,-999.0,92,-99.99,,,0.00,0,weatherlink.com 1.10,2013-06-03 11:01:00,
2013-06-03 06:15:00,58.8,57.0,30.12,NNW,337,5.0,-999.0,92,-99.99,,,0.00,11,weatherlink.com 1.10,2013-06-03 11:15:00,
2013-06-03 06:30:00,58.8,56.0,30.12,NNW,335,4.0,-999.0,91,-99.99,,,0.00,25,weatherlink.com 1.10,2013-06-03 11:30:00,
2013-06-03 06:45:00,58.8,56.0,30.13,NNW,336,0.0,-999.0,91,-99.99,,,0.00,40,weatherlink.com 1.10,2013-06-03 11:45:00,
2013-06-03 07:00:00,59.1,57.0,30.13,NNW,336,0.0,-999.0,91,-99.99,,,0.00,63,weatherlink.com 1.10,2013-06-03 12:00:00,
2013-06-03 07:15:00,59.4,57.0,30.12,NNW,336,0.0,-999.0,90,-99.99,,,0.00,179,weatherlink.com 1.10,2013-06-03 12:15:00,
2013-06-03 07:30:00,60.0,57.0,30.12,NNW,336,0.0,-999.0,90,-99.99,,,0.00,218,weatherlink.com 1.10,2013-06-03 12:30:00,
2013-06-03 07:45:00,60.7,58.0,30.12,NNW,348,0.0,-999.0,89,-99.99,,,0.00,265,weatherlink.com 1.10,2013-06-03 12:45:00,
2013-06-03 08:00:00,61.8,58.0,30.12,NNW,348,0.0,-999.0,87,-99.99,,,0.00,308,weatherlink.com 1.10,2013-06-03 13:00:00,
2013-06-03 08:16:00,62.7,58.0,30.11,NNW,348,0.0,-999.0,85,-99.99,,,0.00,339,weatherlink.com 1.10,2013-06-03 13:16:00,
2013-06-03 08:31:00,63.7,59.0,30.11,North,355,0.0,-999.0,84,-99.99,,,0.00,415,weatherlink.com 1.10,2013-06-03 13:31:00,
2013-06-03 08:46:00,65.2,59.0,30.11,North,355,0.0,-999.0,81,-99.99,,,0.00,462,weatherlink.com 1.10,2013-06-03 13:46:00,
2013-06-03 09:01:00,66.0,59.0,30.10,North,355,4.0,-999.0,79,-99.99,,,0.00,526,weatherlink.com 1.10,2013-06-03 14:01:00,
2013-06-03 09:16:00,66.3,60.0,30.10,North,5,0.0,-999.0,79,-99.99,,,0.00,589,weatherlink.com 1.10,2013-06-03 14:16:00,
2013-06-03 09:31:00,66.7,60.0,30.10,NE,42,0.0,-999.0,78,-99.99,,,0.00,664,weatherlink.com 1.10,2013-06-03 14:31:00,
2013-06-03 09:46:00,67.3,60.0,30.10,NE,42,0.0,-999.0,76,-99.99,,,0.00,719,weatherlink.com 1.10,2013-06-03 14:46:00,
2013-06-03 10:01:00,67.5,59.0,30.10,NE,42,0.0,-999.0,74,-99.99,,,0.00,327,weatherlink.com 1.10,2013-06-03 15:01:00,
2013-06-03 10:16:00,69.2,59.0,30.10,NE,42,0.0,-999.0,71,-99.99,,,0.00,803,weatherlink.com 1.10,2013-06-03 15:16:00,
2013-06-03 10:31:00,70.4,61.0,30.09,ENE,64,0.0,-999.0,71,-99.99,,,0.00,733,weatherlink.com 1.10,2013-06-03 15:31:00,
2013-06-03 10:46:00,71.2,60.0,30.09,ENE,64,1.0,-999.0,67,-99.99,,,0.00,564,weatherlink.com 1.10,2013-06-03 15:46:00,
2013-06-03 11:01:00,71.4,60.0,30.09,ENE,64,0.0,-999.0,67,-99.99,,,0.00,728,weatherlink.com 1.10,2013-06-03 16:01:00,
2013-06-03 11:16:00,72.0,60.0,30.09,ENE,73,0.0,-999.0,67,-99.99,,,0.00,895,weatherlink.com 1.10,2013-06-03 16:16:00,
2013-06-03 11:31:00,72.4,60.0,30.09,ENE,73,0.0,-999.0,65,-99.99,,,0.00,816,weatherlink.com 1.10,2013-06-03 16:31:00,
2013-06-03 11:46:00,72.5,59.0,30.08,ENE,73,0.0,-999.0,62,-99.99,,,0.00,858,weatherlink.com 1.10,2013-06-03 16:46:00,
2013-06-03 12:01:00,73.1,60.0,30.09,ENE,73,0.0,-999.0,64,-99.99,,,0.00,977,weatherlink.com 1.10,2013-06-03 17:01:00,
2013-06-03 12:16:00,73.6,60.0,30.08,ENE,73,0.0,-999.0,63,-99.99,,,0.00,1004,weatherlink.com 1.10,2013-06-03 17:16:00,
2013-06-03 12:31:00,73.6,60.0,30.08,ENE,73,0.0,-999.0,62,-99.99,,,0.00,1034,weatherlink.com 1.10,2013-06-03 17:31:00,
2013-06-03 12:47:00,74.4,59.0,30.07,ENE,73,0.0,-999.0,60,-99.99,,,0.00,1136,weatherlink.com 1.10,2013-06-03 17:47:00,
2013-06-03 13:01:00,73.9,60.0,30.07,ENE,73,0.0,-999.0,62,-99.99,,,0.00,1088,weatherlink.com 1.10,2013-06-03 18:01:00,
2013-06-03 13:32:00,75.0,58.0,30.06,ENE,73,0.0,-999.0,56,-99.99,,,0.00,1032,weatherlink.com 1.10,2013-06-03 18:32:00,
2013-06-03 13:47:00,74.7,57.0,30.05,ENE,73,0.0,-999.0,54,-99.99,,,0.00,633,weatherlink.com 1.10,2013-06-03 18:47:00,
2013-06-03 14:02:00,75.3,61.0,30.05,ENE,73,3.0,-999.0,62,-99.99,,,0.00,909,weatherlink.com 1.10,2013-06-03 19:02:00,
2013-06-03 14:17:00,75.7,59.0,30.05,ENE,73,0.0,-999.0,56,-99.99,,,0.00,279,weatherlink.com 1.10,2013-06-03 19:17:00,
2013-06-03 14:32:00,76.1,58.0,30.05,ENE,72,0.0,-999.0,54,-99.99,,,0.00,928,weatherlink.com 1.10,2013-06-03 19:32:00,
2013-06-03 14:47:00,76.6,58.0,30.04,ENE,73,0.0,-999.0,52,-99.99,,,0.00,905,weatherlink.com 1.10,2013-06-03 19:47:00,
2013-06-03 15:02:00,76.6,60.0,30.04,ENE,73,0.0,-999.0,57,-99.99,,,0.00,846,weatherlink.com 1.10,2013-06-03 20:02:00,
2013-06-03 15:17:00,76.3,58.0,30.03,ENE,73,0.0,-999.0,54,-99.99,,,0.00,761,weatherlink.com 1.10,2013-06-03 20:17:00,
2013-06-03 15:32:00,75.3,58.0,30.02,ENE,73,0.0,-999.0,56,-99.99,,,0.00,390,weatherlink.com 1.10,2013-06-03 20:32:00,
2013-06-03 15:47:00,76.1,60.0,30.02,ENE,73,2.0,-999.0,57,-99.99,,,0.00,788,weatherlink.com 1.10,2013-06-03 20:47:00,
2013-06-03 16:02:00,77.0,60.0,30.02,ENE,73,0.0,-999.0,56,-99.99,,,0.00,647,weatherlink.com 1.10,2013-06-03 21:02:00,
2013-06-03 16:17:00,76.4,59.0,30.01,ENE,72,0.0,-999.0,56,-99.99,,,0.00,575,weatherlink.com 1.10,2013-06-03 21:17:00,
2013-06-03 16:32:00,76.1,59.0,30.01,ENE,73,0.0,-999.0,55,-99.99,,,0.00,302,weatherlink.com 1.10,2013-06-03 21:32:00,
2013-06-03 16:47:00,75.8,59.0,30.01,ENE,73,0.0,-999.0,57,-99.99,,,0.00,272,weatherlink.com 1.10,2013-06-03 21:47:00,
2013-06-03 17:02:00,75.3,59.0,30.01,ENE,73,0.0,-999.0,57,-99.99,,,0.00,635,weatherlink.com 1.10,2013-06-03 22:02:00,
2013-06-03 17:17:00,76.6,59.0,30.00,ENE,73,0.0,-999.0,55,-99.99,,,0.00,404,weatherlink.com 1.10,2013-06-03 22:17:00,
2013-06-03 17:32:00,76.1,61.0,30.00,ENE,73,0.0,-999.0,60,-99.99,,,0.00,369,weatherlink.com 1.10,2013-06-03 22:32:00,
2013-06-03 17:47:00,75.5,61.0,30.00,ENE,73,0.0,-999.0,60,-99.99,,,0.00,376,weatherlink.com 1.10,2013-06-03 22:47:00,
2013-06-03 18:02:00,75.6,61.0,29.99,ENE,73,0.0,-999.0,61,-99.99,,,0.00,179,weatherlink.com 1.10,2013-06-03 23:02:00,
2013-06-03 18:17:00,75.8,61.0,29.99,ENE,78,0.0,-999.0,60,-99.99,,,0.00,155,weatherlink.com 1.10,2013-06-03 23:17:00,
2013-06-03 18:32:00,75.7,61.0,29.99,ENE,78,0.0,-999.0,60,-99.99,,,0.00,84,weatherlink.com 1.10,2013-06-03 23:32:00,
2013-06-03 18:47:00,75.5,60.0,29.99,ENE,78,0.0,-999.0,59,-99.99,,,0.00,46,weatherlink.com 1.10,2013-06-03 23:47:00,
2013-06-03 19:02:00,75.0,61.0,29.99,ENE,78,0.0,-999.0,61,-99.99,,,0.00,51,weatherlink.com 1.10,2013-06-04 00:02:00,
2013-06-03 19:17:00,74.1,60.0,29.99,ENE,78,0.0,-999.0,61,-99.99,,,0.00,39,weatherlink.com 1.10,2013-06-04 00:17:00,
2013-06-03 19:32:00,73.1,60.0,30.00,ENE,78,0.0,-999.0,64,-99.99,,,0.00,28,weatherlink.com 1.10,2013-06-04 00:32:00,
2013-06-03 19:47:00,72.1,60.0,29.99,ENE,78,0.0,-999.0,66,-99.99,,,0.00,25,weatherlink.com 1.10,2013-06-04 00:47:00,
2013-06-03 20:02:00,71.2,61.0,30.00,ENE,78,0.0,-999.0,69,-99.99,,,0.00,16,weatherlink.com 1.10,2013-06-04 01:02:00,
2013-06-03 20:17:00,70.1,60.0,30.00,ENE,78,0.0,-999.0,71,-99.99,,,0.00,5,weatherlink.com 1.10,2013-06-04 01:17:00,
2013-06-03 20:32:00,69.2,60.0,30.00,ENE,78,0.0,-999.0,73,-99.99,,,0.00,0,weatherlink.com 1.10,2013-06-04 01:32:00,
2013-06-03 20:47:00,68.3,60.0,30.00,ENE,78,0.0,-999.0,74,-99.99,,,0.00,0,weatherlink.com 1.10,2013-06-04 01:47:00,
2013-06-03 21:02:00,67.5,59.0,30.01,ENE,78,0.0,-999.0,75,-99.99,,,0.00,0,weatherlink.com 1.10,2013-06-04 02:02:00,
2013-06-03 21:17:00,67.0,59.0,30.01,ENE,78,0.0,-999.0,76,-99.99,,,0.00,0,weatherlink.com 1.10,2013-06-04 02:17:00,
2013-06-03 21:32:00,66.5,59.0,30.02,ENE,78,0.0,-999.0,78,-99.99,,,0.00,0,weatherlink.com 1.10,2013-06-04 02:32:00,
2013-06-03 21:47:00,66.3,60.0,30.02,ENE,78,0.0,-999.0,79,-99.99,,,0.00,0,weatherlink.com 1.10,2013-06-04 02:47:00,
2013-06-03 22:02:00,65.9,59.0,30.02,ENE,78,0.0,-999.0,79,-99.99,,,0.00,0,weatherlink.com 1.10,2013-06-04 03:02:00,
2013-06-03 22:17:00,65.3,59.0,30.03,ENE,78,0.0,-999.0,80,-99.99,,,0.00,0,weatherlink.com 1.10,2013-06-04 03:17:00,
2013-06-03 22:32:00,65.2,59.0,30.03,ENE,78,0.0,-999.0,80,-99.99,,,0.00,0,weatherlink.com 1.10,2013-06-04 03:32:00,
2013-06-03 22:47:00,65.0,59.0,30.03,ENE,78,0.0,-999.0,81,-99.99,,,0.00,0,weatherlink.com 1.10,2013-06-04 03:47:00,
2013-06-03 23:02:00,65.0,59.0,30.03,ENE,78,0.0,-999.0,82,-99.99,,,0.00,0,weatherlink.com 1.10,2013-06-04 04:02:00,
2013-06-03 23:17:00,64.8,59.0,30.03,ENE,78,0.0,-999.0,82,-99.99,,,0.00,0,weatherlink.com 1.10,2013-06-04 04:17:00,
2013-06-03 23:32:00,64.5,59.0,30.04,ENE,78,0.0,-999.0,83,-99.99,,,0.00,0,weatherlink.com 1.10,2013-06-04 04:32:00,
2013-06-03 23:47:00,64.2,59.0,30.04,ENE,78,0.0,-999.0,83,-99.99,,,0.00,0,weatherlink.com 1.10,2013-06-04 04:47:00,